Weather in Nizov'ye

Russia / Kaliningrad Oblast     54°42′02″N   20°44′28″E
temp.,
°C
wind,
m/s
gust,
m/s
humid.,
%
clouds,
%
prec.,
mm/h
press.,
hPa
HPBL,
m
18 june, fri
fri1823:00+16sse36875 0.0 102284
02:00+14sse37872 0.0 102296
05:00+15sse37895 0.0 1021117
08:00+20sse46755 0.0 1021284
11:00+24sse56595 0.0 1021911
14:00+26s46505 0.0 10201561
17:00+27sse36615 0.0 10191629
20:00+24se35805 0.0 101895
19 june, sat
sat1923:00+19sse410895 0.0 1019185
02:00+17sse49870 0.0 1019140
05:00+17sse38835 0.0 1019131
08:00+22sse47765 0.0 1019284
11:00+26sse45664 0.0 1018801
14:00+28sse46555 0.0 10171949
17:00+28sse45614 0.0 10171054
20:00+24se34790 0.0 101668
20 june, sun
sun2023:00+20sse34885 0.0 101661
02:00+22sse397699 0.0 1016224
05:00+21sse3979100 0.0 1016223
08:00+23sse367981 0.0 1016306
11:00+26sse55640 0.0 1016974
14:00+27sse56570 0.0 10151608
17:00+28sse36600 0.0 10141706
20:00+24se36770 0.0 1013104
21 june, mon
mon2123:00+20se410860 0.0 1013200
02:00+19se39950 0.0 1012179
05:00+18se38950 0.0 1012182
08:00+23se58785 0.0 1012418
11:00+27se68634 0.0 10111144
14:00+28se68523 0.0 10101605
17:00+27sse57624 0.0 10091265
20:00+23ese39780 0.0 1008236
22 june, tue
tue2223:00+19se36912 0.1 1009105
02:00+18se38930 0.1 1009139
05:00+18sse37932 0.0 1008133
08:00+23s4679100 0.0 1010424
11:00+25wsw3374100 0.7 1010970
14:00+23nnw338388 3.5 1011636
17:00+22nw447841 0.8 1012664
20:00+18nw368485 0.8 1014253